Hourly Data Report for September 29, 2003

SHERBROOKE A
QUEBEC

45°26'00.000" N
71°41'00.000" W
241.40 m
7028124
71610
YSC

Download Data

Hourly Data (September 2003)
Hourly Data Report for September 29, 2003
TIME
LST
Temp Definition
°C
Dew Point Definition
°C
Rel Hum Definition
%
Precip. Amount Definition
mm

Wind Dir Definition
10's deg

Wind Spd Definition
km/h
Visibility Definition
km
Stn Press Definition
kPa
Hmdx Definition


Wind Chill Definition


Weather Definition


00:00 11.1 10.7 97   27 4 4.8 97.90     Rain
01:00 11.0 10.5 97   27 6 12.9 97.89      
02:00 11.0 10.6 97   26 4 4.8 97.89      
03:00 11.1 10.6 97   25 4 8.0 97.91      
04:00 11.1 10.6 97   26 9 9.7 97.92      
05:00 10.7 9.7 94   25 6 15.0 97.97      
06:00 10.6 9.9 95     0 15.0 98.01      
07:00 11.1 10.5 96   22 6 9.7 98.06     Fog
08:00 11.5 10.7 95   24 7 19.3 98.09     Mostly Cloudy
09:00 12.4 11.1 92   24 6 24.1 98.15     Mostly Cloudy
10:00 13.9 11.2 84   23 6 24.1 98.15     Mostly Cloudy
11:00 15.4 10.1 71   25 9 24.1 98.12     Mostly Cloudy
12:00 14.6 9.7 72   25 7 24.1 98.17     Mostly Cloudy
13:00 14.6 9.5 71   19 4 24.1 98.18     Cloudy
14:00 14.8 9.9 72   28 7 24.1 98.20     Cloudy
15:00 13.8 11.0 83   20 4 24.1 98.22     Rain Showers
16:00 13.2 9.3 77   23 4 24.1 98.22     Rain Showers
17:00 11.9 8.6 80   20 6 15.0 98.21      
18:00 10.4 9.2 92   18 9 6.4 98.31     Moderate Rain
19:00 10.1 9.2 94   19 6 15.0 98.39     Rain
20:00 10.0 8.9 93   20 7 15.0 98.41     Rain
21:00 9.1 8.1 93   21 6 15.0 98.46      
22:00 8.3 7.5 95   21 4 15.0 98.49      
23:00 8.9 8.0 94   23 6 15.0 98.51      

Notes on Data Quality.

Legend

  • E = Estimated
  • M = Missing
  • NA = Not Available*
  • [empty] = Indicates an unobserved value
Date modified: